Weather History for Chillicothe, MO

Change the Weather History Date:

Friday, September 6, 2013

  Actual Average (KIRK) Record (KIRK)
Temperature  
Mean Temperature 76 °F 68 °F  
Max Temperature 91 °F 80 °F 101 °F (1936)
Min Temperature 61 °F 57 °F 40 °F (1962)
Degree Days  
Heating Degree Days 0 1  
Month to date heating degree days 6  
Since 1 July heating degree days 13  
Cooling Degree Days 10 4  
Month to date cooling degree days 31  
Year to date cooling degree days 875  
Growing Degree Days 26 (Base 50)    
Moisture  
Dew Point 60 °F    
Average Humidity 64    
Maximum Humidity 90    
Minimum Humidity 34    
Precipitation  
Precipitation 0.00 in 0.16 in 1.68 in (1964)
Month to date precipitation 0.92  
Year to date precipitation 28.33  
Sea Level Pressure  
Sea Level Pressure 30.07 in    
Wind  
Wind Speed 2 mph (South)    
Max Wind Speed 8 mph    
Max Gust Speed -    
T = Trace of Precipitation, MM = Missing Value Source: NWS Daily Summary

Daily Weather History Graph

Daily Weather History Graph

Search for Another Location

Airport:

Trip Planner

Search our weather history database for the weather conditions in past years. The results will help you decide how hot, cold, wet, or windy it might be!

Date:

Astronomy

Sep. 06, 2013 Rise Set
Actual Time 6:47 AM CDT 7:37 PM CDT
Civil Twilight 6:19 AM CDT 8:04 PM CDT
Nautical Twilight 5:47 AM CDT 8:37 PM CDT
Astronomical Twilight 5:13 AM CDT 9:10 PM CDT
Moon 8:00 AM CDT (9/6) 8:02 PM CDT (9/6)
Length of Visible Light 13h 44m
Length of Day
12h 49m
New Moon, 2% of the Moon is Illuminated
Sep 6
New Moon
Sep 12
First Quarter
Sep 19
Full
Sep 26
Last Quarter
Oct 4
New

Hourly Weather History & Observations

Time (CDT) Temp. Heat Index Dew Point Humidity Pressure Visibility Wind Dir Wind Speed Gust Speed Precip Events Conditions
12:52 AM 64.0 °F - 60.1 °F 87% 30.12 in - Calm Calm - N/A   Unknown
1:52 AM 62.1 °F - 59.0 °F 90% 30.13 in - Calm Calm - N/A   Unknown
2:52 AM 62.1 °F - 59.0 °F 90% 30.12 in - Calm Calm - N/A   Unknown
3:52 AM 61.0 °F - 57.0 °F 87% 30.12 in - Calm Calm - N/A   Unknown
4:52 AM 61.0 °F - 57.9 °F 90% 30.13 in - Calm Calm - N/A   Unknown
5:52 AM 61.0 °F - 57.9 °F 90% 30.12 in - Calm Calm - N/A   Unknown
6:52 AM 61.0 °F - 57.9 °F 90% 30.14 in - Calm Calm - N/A   Unknown
7:52 AM 64.9 °F - 61.0 °F 87% 30.14 in - Calm Calm - N/A   Unknown
8:52 AM 71.1 °F - 63.0 °F 75% 30.14 in - Calm Calm - N/A   Unknown
9:52 AM 77.0 °F - 61.0 °F 58% 30.13 in - South 4.6 mph - N/A   Unknown
10:52 AM 81.0 °F 82.2 °F 63.0 °F 54% 30.13 in - SSE 5.8 mph - N/A   Unknown
11:52 AM 86.0 °F 86.1 °F 61.0 °F 43% 30.11 in - Variable 6.9 mph - N/A   Unknown
12:52 PM 88.0 °F 87.6 °F 60.1 °F 39% 30.09 in - South 6.9 mph - N/A   Unknown
1:52 PM 88.0 °F 87.1 °F 59.0 °F 37% 30.06 in - South 6.9 mph - N/A   Unknown
2:52 PM 89.1 °F 87.7 °F 57.0 °F 34% 30.04 in - Variable 6.9 mph - N/A   Unknown
3:52 PM 90.0 °F 88.8 °F 57.9 °F 34% 30.01 in - SW 8.1 mph - N/A   Unknown
4:52 PM 90.0 °F 89.1 °F 59.0 °F 35% 30.00 in - SSW 8.1 mph - N/A   Unknown
5:52 PM 88.0 °F 87.6 °F 60.1 °F 39% 29.99 in - SSW 8.1 mph - N/A   Unknown
6:52 PM 84.9 °F 85.4 °F 62.1 °F 46% 29.99 in - South 4.6 mph - N/A   Unknown
7:52 PM 78.1 °F - 64.0 °F 62% 29.99 in - Calm Calm - N/A   Unknown
8:52 PM 73.9 °F - 64.0 °F 71% 30.00 in - Calm Calm - N/A   Unknown
9:52 PM 73.9 °F - 62.1 °F 66% 29.99 in - South 3.5 mph - N/A   Unknown
10:52 PM 73.9 °F - 61.0 °F 64% 29.98 in - South 3.5 mph - N/A   Unknown
11:52 PM 73.0 °F - 61.0 °F 66% 29.98 in - South 3.5 mph - N/A   Unknown